STARLINK-30090 (56293 NORAD) Tracking and Keplerian Element Data

This shows tracking and keplerian element data for the satellite.

Feedback or suggestion? Click here.




ElementValue
Catalog56293
NameSTARLINK-30090
Epoch Orbit324
Epoch Day127.25001157
Epoch Year2023
RAAN97.7637
Inclination43.0025
Eccentricity0.0001379
Argument of Perigee264.2399
Mean Anonmoly123.6959
Mean Motion15.39949927
Decay Rate-0.0135269
L11 56293U 23056H 23127.25001157 -.01352690 00000+0 -36382-1 0 9997
L22 56293 43.0025 97.7637 0001379 264.2399 123.6959 15.39949927 3247



Live tracking and technical data element details for STARLINK-30090 (NORAD 56293). STARLINK-30090 can be tracked NOW for your location showing map with azimuth and elevation plus other details from your city location.







IsCatalogInMostPopularTable: catalog: 56293, numindb: 5
Update: records affected: 1



GetName: 56293 STARLINK-30090

Hit Count: updated at: Wed, 07 Jun 2023 09:29:54 GMT